Spokane, WA

8:54 AM PDT on August 17, 2017 (GMT -0700)
Spokane International

Weather History for KGEG - May, 2014

Change the Weather History Date:

Tuesday, May 27, 2014

  Actual Average Record
Temperature  
Mean Temperature 57 °F 58 °F  
Max Temperature 70 °F 69 °F 92 °F (1958)
Min Temperature 44 °F 47 °F 34 °F (1955)
Degree Days  
Heating Degree Days 8 8  
Month to date heating degree days 195 292  
Since 1 July heating degree days 6555 6428  
Cooling Degree Days 0 1  
Month to date cooling degree days 6 6  
Year to date cooling degree days 6 6  
Growing Degree Days 7 (Base 50)    
Moisture  
Dew Point 35 °F    
Average Humidity 46    
Maximum Humidity 65    
Minimum Humidity 26    
Precipitation  
Precipitation T in 0.06 in 0.98 in (2010)
Month to date precipitation 0.46 1.37  
Year to date precipitation 7.30 7.38  
Snow  
Snow 0.00 in 0.00 in T in (1921)
Month to date snowfall 0.0 0.1  
Since 1 July snowfall 37.6 44.9  
Snow Depth 0.00 in    
Sea Level Pressure  
Sea Level Pressure 30.01 in    
Wind  
Wind Speed 6 mph (South)    
Max Wind Speed 17 mph    
Max Gust Speed 22 mph    
Visibility 10 miles    
Events Rain    
T = Trace of Precipitation, MM = Missing Value Source: NWS Daily Summary

Daily Weather History Graph

Daily Weather History Graph

Search for Another Location

Airport or City:

Trip Planner

Search our weather history database for the weather conditions in past years. The results will help you decide how hot, cold, wet, or windy it might be!

Date:

Astronomy

May. 27, 2014 Rise Set
Actual Time 5:00 AM PDT 8:35 PM PDT
Civil Twilight 4:21 AM PDT 9:13 PM PDT
Nautical Twilight 3:29 AM PDT 10:05 PM PDT
Astronomical Twilight 2:19 AM PDT 11:16 PM PDT
Moon 4:33 AM PDT (5/27) 7:36 PM PDT (5/27)
Length of Visible Light 16h 52m
Length of Day
15h 35m
Waning Crescent, 1% of the Moon is Illuminated
May 27
Waning Crescent
May 28
New
Jun 5
First Quarter
Jun 12
Full
Jun 19
Last Quarter

Hourly Weather History & Observations

Time (PDT) Temp. Windchill Dew Point Humidity Pressure Visibility Wind Dir Wind Speed Gust Speed Precip Events Conditions
12:53 AM 53.1 °F - 26.1 °F 35% 30.04 in 10.0 mi SSW 5.8 mph - N/A   Partly Cloudy
1:53 AM 50.0 °F - 33.1 °F 52% 30.04 in 10.0 mi South 6.9 mph - N/A   Clear
2:53 AM 46.0 °F 43.1 °F 30.9 °F 56% 30.05 in 10.0 mi South 5.8 mph - N/A   Clear
3:53 AM 45.0 °F 41.8 °F 34.0 °F 65% 30.05 in 10.0 mi SE 5.8 mph - N/A   Clear
4:53 AM 44.1 °F 41.5 °F 34.0 °F 68% 30.05 in 10.0 mi SSE 4.6 mph - N/A   Partly Cloudy
5:53 AM 46.0 °F 43.9 °F 35.1 °F 66% 30.07 in 10.0 mi SSE 4.6 mph - N/A   Partly Cloudy
6:53 AM 48.9 °F - 35.1 °F 59% 30.08 in 10.0 mi South 6.9 mph - N/A   Partly Cloudy
7:53 AM 52.0 °F - 35.1 °F 53% 30.07 in 10.0 mi SSE 4.6 mph - N/A   Scattered Clouds
8:53 AM 55.0 °F - 34.0 °F 45% 30.07 in 10.0 mi Calm Calm - N/A   Mostly Cloudy
9:53 AM 57.9 °F - 32.0 °F 37% 30.06 in 10.0 mi Calm Calm - N/A   Mostly Cloudy
10:53 AM 62.1 °F - 32.0 °F 32% 30.05 in 10.0 mi Variable 3.5 mph - N/A   Mostly Cloudy
11:53 AM 63.0 °F - 32.0 °F 31% 30.03 in 10.0 mi Variable 5.8 mph - N/A   Mostly Cloudy
12:53 PM 64.9 °F - 33.1 °F 31% 29.99 in 10.0 mi Calm Calm - N/A   Scattered Clouds
1:53 PM 69.8 °F - 33.8 °F 27% 29.99 in 10.0 mi Variable 6.9 mph - N/A   Mostly Cloudy
2:53 PM 66.0 °F - 33.1 °F 29% 29.98 in 10.0 mi SSW 5.8 mph - N/A   Mostly Cloudy
3:53 PM 68.0 °F - 34.0 °F 28% 29.96 in 10.0 mi Variable 4.6 mph - N/A   Mostly Cloudy
4:53 PM 66.9 °F - 34.0 °F 30% 29.95 in 10.0 mi WSW 11.5 mph - N/A   Mostly Cloudy
5:53 PM 66.0 °F - 34.0 °F 30% 29.95 in 10.0 mi West 9.2 mph - N/A   Mostly Cloudy
6:53 PM 66.0 °F - 37.0 °F 34% 29.94 in 10.0 mi South 11.5 mph - 0.00 in Rain Light Rain
7:53 PM 62.1 °F - 37.0 °F 39% 29.94 in 10.0 mi SSE 12.7 mph - 0.00 in   Mostly Cloudy
8:53 PM 60.1 °F - 39.0 °F 46% 29.94 in 10.0 mi South 9.2 mph - N/A   Mostly Cloudy
9:53 PM 60.1 °F - 37.9 °F 44% 29.95 in 10.0 mi SSW 8.1 mph - N/A   Mostly Cloudy
10:53 PM 57.9 °F - 39.9 °F 51% 29.96 in 10.0 mi South 9.2 mph - N/A   Overcast
11:53 PM 55.9 °F - 39.9 °F 55% 29.94 in 10.0 mi SSE 8.1 mph - N/A   Mostly Cloudy